Location: Bismarck
(46.7731°N, 100.8200°W)
Time: 06:30:00
(UTC-06:00)

ISS - Pass Details

Date: 28 November 2017
Orbit: 403 x 407 km, 51.6° (Epoch: 12 December)

Event Time Altitude Azimuth Distance (km) Brightness Sun altitude
Rises 00:37:38 0° 295° (WNW) 2,329 - -64.5°
Reaches altitude 10° 00:39:43 10° 293° (WNW) 1,465 - -64.5°
Maximum altitude 00:42:59 71° 210° (SSW) 431 - -64.5°
Drops below altitude 10° 00:46:14 10° 125° (SE) 1,455 - -64.4°
Sets 00:48:19 0° 124° (ESE) 2,311 - -64.3°
